Dalzell, IL

9:07 PM CST on February 19, 2017 (GMT -0600)
Illinois Valley Regional-Duncan

Weather History for KVYS - May, 2012

Change the Weather History Date:

Sunday, May 20, 2012

  Actual Average Record
Temperature  
Mean Temperature 76 °F -  
Max Temperature 89 °F 75 °F 91 °F (1977)
Min Temperature 63 °F 50 °F 37 °F (1967)
Cooling Degree Days 11    
Growing Degree Days 26 (Base 50)    
Moisture  
Dew Point 57 °F    
Average Humidity 52    
Maximum Humidity 68    
Minimum Humidity 34    
Precipitation  
Precipitation 0.00 in - - ()
Sea Level Pressure  
Sea Level Pressure 30.01 in    
Wind  
Wind Speed 12 mph (SW)    
Max Wind Speed 23 mph    
Max Gust Speed 30 mph    
Visibility 10 miles    
Events Rain , Thunderstorm    
Averages and records for this station are not official NWS values.
T = Trace of Precipitation, MM = Missing Value Source: NWS Daily Summary

Daily Weather History Graph

Daily Weather History Graph

Search for Another Location

Airport or City:

Trip Planner

Search our weather history database for the weather conditions in past years. The results will help you decide how hot, cold, wet, or windy it might be!

Date:

Astronomy

May. 20, 2012 Rise Set
Actual Time 5:32 AM CDT 8:13 PM CDT
Civil Twilight 5:00 AM CDT 8:46 PM CDT
Nautical Twilight 4:20 AM CDT 9:26 PM CDT
Astronomical Twilight 3:35 AM CDT 10:12 PM CDT
Moon 5:13 AM CDT 8:12 PM CDT
Length of Visible Light 15h 45m
Length of Day
14h 40m
Waning Crescent, 0% of the Moon is Illuminated
May 20
Waning Crescent
May 20
New
May 28
First Quarter
Jun 4
Full
Jun 11
Last Quarter

Hourly Weather History & Observations

Time (CDT) Temp. Heat Index Dew Point Humidity Pressure Visibility Wind Dir Wind Speed Gust Speed Precip Events Conditions
12:15 AM 75.2 °F - 55.4 °F 50% 30.02 in 10.0 mi SSW 10.4 mph - N/A   Clear
12:35 AM 75.2 °F - 55.9 °F 51% 30.03 in 10.0 mi SSW 10.4 mph - N/A   Clear
12:55 AM 73.6 °F - 56.1 °F 54% 30.03 in 10.0 mi SSW 8.1 mph - N/A   Clear
1:15 AM 73.0 °F - 56.1 °F 55% 30.02 in 10.0 mi South 8.1 mph - N/A   Clear
1:35 AM 71.6 °F - 56.1 °F 58% 30.01 in 10.0 mi South 8.1 mph - N/A   Clear
1:55 AM 71.6 °F - 56.3 °F 58% 30.01 in 10.0 mi South 9.2 mph - N/A   Clear
2:15 AM 71.6 °F - 56.3 °F 58% 30.01 in 10.0 mi South 9.2 mph - N/A   Clear
2:35 AM 70.3 °F - 56.5 °F 61% 30.01 in 10.0 mi South 8.1 mph - N/A   Clear
2:55 AM 70.7 °F - 56.7 °F 61% 30.01 in 10.0 mi South 8.1 mph - N/A   Clear
3:15 AM 70.2 °F - 56.8 °F 63% 30.01 in 10.0 mi South 8.1 mph - N/A   Clear
3:35 AM 69.3 °F - 56.8 °F 65% 30.01 in 10.0 mi South 6.9 mph - N/A   Clear
3:55 AM 69.4 °F - 57.0 °F 65% 30.01 in 10.0 mi South 6.9 mph - N/A   Clear
4:15 AM 69.3 °F - 57.2 °F 65% 30.01 in 10.0 mi South 6.9 mph - N/A   Clear
4:35 AM 68.7 °F - 57.0 °F 66% 30.01 in 10.0 mi South 6.9 mph - N/A   Clear
4:55 AM 68.4 °F - 57.2 °F 67% 30.01 in 10.0 mi South 8.1 mph - N/A   Clear
5:15 AM 68.5 °F - 57.2 °F 67% 30.01 in 10.0 mi South 8.1 mph - N/A   Clear
5:35 AM 69.8 °F - 57.2 °F 64% 30.01 in 10.0 mi SSE 9.2 mph - N/A   Clear
5:55 AM 68.9 °F - 57.6 °F 67% 30.02 in 10.0 mi South 9.2 mph - N/A   Clear
6:15 AM 68.9 °F - 58.1 °F 68% 30.02 in 10.0 mi South 8.1 mph - N/A   Clear
6:35 AM 69.8 °F - 58.1 °F 66% 30.03 in 10.0 mi South 10.4 mph - N/A   Clear
6:55 AM 70.2 °F - 58.5 °F 66% 30.02 in 10.0 mi South 10.4 mph - N/A   Clear
7:15 AM 71.8 °F - 59.0 °F 64% 30.03 in 10.0 mi South 11.5 mph - N/A   Clear
7:35 AM 73.4 °F - 59.5 °F 62% 30.03 in 10.0 mi South 10.4 mph - N/A   Clear
7:55 AM 75.2 °F - 59.7 °F 58% 30.02 in 10.0 mi South 9.2 mph - N/A   Clear
8:15 AM 76.8 °F - 60.1 °F 56% 30.02 in 10.0 mi SSW 10.4 mph - N/A   Clear
8:35 AM 78.1 °F - 60.4 °F 54% 30.02 in 10.0 mi SSW 11.5 mph - N/A   Clear
8:55 AM 80.1 °F 81.1 °F 61.0 °F 52% 30.02 in 10.0 mi SSW 12.7 mph - N/A   Clear
9:15 AM 80.6 °F 81.4 °F 60.3 °F 50% 30.02 in 10.0 mi SSW 12.7 mph 19.6 mph N/A   Clear
9:35 AM 82.2 °F 82.9 °F 61.2 °F 49% 30.02 in 10.0 mi SW 13.8 mph - N/A   Clear
9:55 AM 82.8 °F 83.1 °F 60.8 °F 47% 30.02 in 10.0 mi SSW 19.6 mph - N/A   Clear
10:15 AM 82.8 °F 83.1 °F 60.6 °F 47% 30.02 in 10.0 mi SW 17.3 mph - N/A   Clear
10:35 AM 83.3 °F 83.5 °F 60.3 °F 46% 30.02 in 10.0 mi SW 18.4 mph 23.0 mph N/A   Clear
10:55 AM 84.4 °F 84.4 °F 60.1 °F 44% 30.01 in 10.0 mi SSW 17.3 mph - N/A   Clear
11:15 AM 85.3 °F 85.0 °F 59.5 °F 42% 30.01 in 10.0 mi SW 17.3 mph 23.0 mph N/A   Clear
11:35 AM 86.2 °F 85.6 °F 59.2 °F 40% 30.01 in 10.0 mi SW 15.0 mph 21.9 mph N/A   Clear
11:55 AM 86.5 °F 85.9 °F 58.8 °F 39% 30.00 in 10.0 mi SW 20.7 mph 26.5 mph N/A   Clear
12:15 PM 86.7 °F 85.6 °F 57.6 °F 37% 30.00 in 10.0 mi SW 18.4 mph 25.3 mph N/A   Clear
12:35 PM 87.6 °F 86.7 °F 58.5 °F 37% 29.99 in 10.0 mi SW 19.6 mph - N/A   Clear
12:55 PM 87.8 °F 86.3 °F 56.5 °F 34% 29.99 in 10.0 mi SSW 18.4 mph 29.9 mph N/A   Clear
1:15 PM 87.4 °F 86.1 °F 56.3 °F 35% 29.98 in 10.0 mi WSW 20.7 mph 29.9 mph N/A   Clear
1:35 PM 88.7 °F 87.3 °F 57.0 °F 34% 29.98 in 10.0 mi SW 21.9 mph 28.8 mph N/A   Clear
1:55 PM 88.0 °F 86.5 °F 55.9 °F 34% 29.98 in 10.0 mi SW 20.7 mph 25.3 mph N/A   Clear
2:15 PM 88.9 °F 87.7 °F 57.6 °F 35% 29.97 in 10.0 mi SW 19.6 mph 26.5 mph N/A   Clear
2:35 PM 88.3 °F 86.9 °F 56.3 °F 34% 29.96 in 10.0 mi SW 23.0 mph - N/A   Clear
2:55 PM 87.1 °F 85.7 °F 56.7 °F 35% 29.96 in 10.0 mi SSW 18.4 mph 24.2 mph N/A   Clear
3:15 PM 86.4 °F 85.9 °F 59.5 °F 40% 29.96 in 10.0 mi SSW 18.4 mph 24.2 mph N/A   Clear
3:35 PM 86.0 °F 85.4 °F 59.0 °F 40% 29.95 in 10.0 mi SW 17.3 mph 24.2 mph N/A   Clear
3:55 PM 86.4 °F 85.9 °F 59.7 °F 40% 29.95 in 10.0 mi SW 18.4 mph 21.9 mph N/A   Clear
4:15 PM 85.3 °F 85.4 °F 61.0 °F 44% 29.94 in 10.0 mi SW 13.8 mph 20.7 mph N/A   Scattered Clouds
4:35 PM 83.1 °F 83.3 °F 60.4 °F 46% 29.95 in 10.0 mi West 15.0 mph 18.4 mph N/A Thunderstorm Mostly Cloudy
4:55 PM 79.0 °F - 65.5 °F 63% 29.96 in 10.0 mi WNW 5.8 mph - N/A Rain , Thunderstorm Light Thunderstorms and Rain
5:15 PM 81.3 °F 82.7 °F 63.9 °F 55% 29.96 in 10.0 mi West 9.2 mph - N/A Thunderstorm Scattered Clouds
5:35 PM 81.3 °F 82.6 °F 63.3 °F 54% 29.95 in 10.0 mi West 9.2 mph - N/A   Scattered Clouds
5:55 PM 80.6 °F 81.8 °F 62.8 °F 54% 29.96 in 10.0 mi West 12.7 mph 17.3 mph N/A   Scattered Clouds
6:15 PM 81.3 °F 82.2 °F 61.5 °F 51% 29.96 in 10.0 mi WNW 11.5 mph 16.1 mph N/A   Mostly Cloudy
6:35 PM 81.0 °F 81.5 °F 59.7 °F 48% 29.94 in 10.0 mi WNW 16.1 mph 21.9 mph N/A   Scattered Clouds
6:55 PM 79.3 °F - 58.1 °F 48% 29.95 in 10.0 mi NW 21.9 mph 28.8 mph N/A   Clear
7:15 PM 77.5 °F - 57.9 °F 51% 29.98 in 10.0 mi WNW 18.4 mph 26.5 mph N/A   Clear
7:35 PM 75.6 °F - 56.5 °F 51% 29.98 in 10.0 mi NW 17.3 mph - N/A   Clear
7:55 PM 74.8 °F - 55.4 °F 51% 30.00 in 10.0 mi NW 16.1 mph 20.7 mph N/A   Clear
8:15 PM 72.9 °F - 54.0 °F 51% 30.00 in 10.0 mi NW 13.8 mph 21.9 mph N/A   Clear
8:35 PM 72.1 °F - 53.2 °F 51% 30.02 in 10.0 mi WNW 13.8 mph 21.9 mph N/A   Clear
8:55 PM 71.6 °F - 53.2 °F 52% 30.03 in 10.0 mi WNW 12.7 mph 17.3 mph N/A   Scattered Clouds
9:15 PM 70.7 °F - 53.1 °F 54% 30.04 in 10.0 mi WNW 10.4 mph - N/A   Mostly Cloudy
9:35 PM 70.2 °F - 52.2 °F 53% 30.07 in 10.0 mi WSW 6.9 mph - N/A   Overcast
9:55 PM 69.8 °F - 51.3 °F 52% 30.07 in 10.0 mi West 8.1 mph - N/A   Mostly Cloudy
10:15 PM 68.9 °F - 51.1 °F 53% 30.07 in 10.0 mi WNW 8.1 mph - N/A   Scattered Clouds
10:35 PM 67.3 °F - 51.3 °F 56% 30.07 in 10.0 mi WNW 9.2 mph - N/A   Clear
10:55 PM 66.7 °F - 51.6 °F 58% 30.08 in 10.0 mi WNW 10.4 mph - N/A   Clear
11:15 PM 65.3 °F - 51.6 °F 61% 30.09 in 10.0 mi NW 10.4 mph - N/A   Clear
11:35 PM 64.4 °F - 51.1 °F 62% 30.09 in 10.0 mi NW 13.8 mph - N/A   Clear
11:55 PM 63.7 °F - 50.7 °F 63% 30.09 in 10.0 mi NW 12.7 mph - N/A   Clear